Valladolid Airport, Spain

2:45 AM CEST on August 20, 2017 (GMT +0200)
Villanubla

Weather History for LEVD - October, 2011

Change the Weather History Date:

Friday, October 28, 2011

  Actual Average Record
Temperature  
Mean Temperature 48 °F -  
Max Temperature 57 °F - - ()
Min Temperature 39 °F - - ()
Degree Days  
Heating Degree Days 17    
Moisture  
Dew Point 42 °F    
Average Humidity 78    
Maximum Humidity 100    
Minimum Humidity 55    
Precipitation  
Precipitation 0.00 in - - ()
Sea Level Pressure  
Sea Level Pressure 30.18 in    
Wind  
Wind Speed 7 mph ()    
Max Wind Speed 13 mph    
Max Gust Speed -    
Visibility 6.2 miles    
Events      
T = Trace of Precipitation, MM = Missing Value Source: Averaged Metar Reports

Daily Weather History Graph

Daily Weather History Graph

Search for Another Location

Airport or City:

Trip Planner

Search our weather history database for the weather conditions in past years. The results will help you decide how hot, cold, wet, or windy it might be!

Date:

Astronomy

Oct. 28, 2011 Rise Set
Actual Time 8:46 AM CEST 7:19 PM CEST
Civil Twilight 8:17 AM CEST 7:48 PM CEST
Nautical Twilight 7:44 AM CEST 8:20 PM CEST
Astronomical Twilight 7:12 AM CEST 8:53 PM CEST
Moon 10:47 AM CEST (10/28) 8:26 PM CEST (10/28)
Length of Visible Light 11h 30m
Length of Day
10h 33m
Waxing Crescent, 4% of the Moon is Illuminated
Oct 28
Waxing Crescent
Nov 2
First Quarter
Nov 10
Full
Nov 18
Last Quarter
Nov 25
New

Hourly Weather History & Observations

Time (CEST) Temp. Windchill Dew Point Humidity Pressure Visibility Wind Dir Wind Speed Gust Speed Precip Events Conditions
6:00 AM 42.8 °F 37.0 °F 41.0 °F 93% 30.12 in 6.2 mi North 10.4 mph - N/A   Scattered Clouds
6:30 AM 42.8 °F 37.0 °F 41.0 °F 93% 30.12 in 6.2 mi NNE 10.4 mph - N/A   Scattered Clouds
7:00 AM 42.8 °F 39.3 °F 41.0 °F 93% 30.12 in 6.2 mi NNE 5.8 mph - N/A   Scattered Clouds
7:30 AM 41.0 °F 38.0 °F 39.2 °F 93% 30.15 in 6.2 mi NE 4.6 mph - N/A   Scattered Clouds
8:00 AM 41.0 °F 39.0 °F 39.2 °F 93% 30.15 in 6.2 mi NNE 3.5 mph - N/A   Partly Cloudy
8:30 AM 39.2 °F 37.0 °F 39.2 °F 100% 30.15 in 6.2 mi NNE 3.5 mph - N/A   Partly Cloudy
9:00 AM 39.2 °F 33.6 °F 39.2 °F 100% 30.15 in 6.2 mi North 8.1 mph - N/A   Scattered Clouds
9:30 AM 42.8 °F 40.1 °F 39.2 °F 87% 30.18 in 6.2 mi NNE 4.6 mph - N/A   Partly Cloudy
10:00 AM 44.6 °F 40.7 °F 41.0 °F 87% 30.18 in 6.2 mi NNE 6.9 mph - N/A   Partly Cloudy
10:30 AM 46.4 °F 43.5 °F 41.0 °F 81% 30.18 in 6.2 mi NNE 5.8 mph - N/A   Partly Cloudy
11:00 AM 48.2 °F - 41.0 °F 76% 30.21 in 6.2 mi NE 8.1 mph - N/A   Partly Cloudy
11:30 AM 50.0 °F - 41.0 °F 71% 30.21 in 6.2 mi NE 8.1 mph - N/A   Partly Cloudy
12:00 PM 50.0 °F - 41.0 °F 71% 30.21 in 6.2 mi NE 10.4 mph - N/A   Partly Cloudy
12:30 PM 51.8 °F - 42.8 °F 71% 30.21 in 6.2 mi ENE 9.2 mph - N/A   Partly Cloudy
1:00 PM 53.6 °F - 42.8 °F 67% 30.21 in 6.2 mi East 6.9 mph - N/A   Partly Cloudy
1:30 PM 53.6 °F - 42.8 °F 67% 30.21 in 6.2 mi ENE 8.1 mph - N/A   Partly Cloudy
2:00 PM 55.4 °F - 41.0 °F 58% 30.18 in 6.2 mi NE 11.5 mph - N/A   Scattered Clouds
2:30 PM 55.4 °F - 41.0 °F 58% 30.18 in 6.2 mi NE 11.5 mph - N/A   Scattered Clouds
3:00 PM 57.2 °F - 41.0 °F 55% 30.18 in 6.2 mi NE 10.4 mph - N/A   Scattered Clouds
3:30 PM 55.4 °F - 42.8 °F 63% 30.18 in 6.2 mi ENE 9.2 mph - N/A   Scattered Clouds
4:00 PM 55.4 °F - 42.8 °F 63% 30.18 in 6.2 mi ENE 10.4 mph - N/A   Scattered Clouds
4:30 PM 55.4 °F - 42.8 °F 63% 30.15 in 6.2 mi NE 12.7 mph - N/A   Scattered Clouds
5:00 PM 57.2 °F - 42.8 °F 59% 30.15 in 6.2 mi ENE 9.2 mph - N/A   Scattered Clouds
5:30 PM 55.4 °F - 42.8 °F 63% 30.15 in 6.2 mi ENE 10.4 mph - N/A   Scattered Clouds
6:00 PM 57.2 °F - 42.8 °F 59% 30.18 in 6.2 mi ENE 5.8 mph - N/A   Scattered Clouds
6:30 PM 53.6 °F - 42.8 °F 67% 30.18 in 6.2 mi NE 8.1 mph - N/A   Scattered Clouds
7:00 PM 53.6 °F - 44.6 °F 72% 30.18 in 6.2 mi ENE 8.1 mph - N/A   Scattered Clouds
7:30 PM 50.0 °F - 42.8 °F 76% 30.18 in 6.2 mi ENE 5.8 mph - N/A   Scattered Clouds
8:00 PM 48.2 °F - 44.6 °F 87% 30.18 in 6.2 mi NE 6.9 mph - N/A   Partly Cloudy
8:30 PM 48.2 °F - 44.6 °F 87% 30.18 in 6.2 mi NE 9.2 mph - N/A   Partly Cloudy
9:00 PM 46.4 °F 44.3 °F 42.8 °F 87% 30.21 in 6.2 mi ENE 4.6 mph - N/A   Partly Cloudy
9:30 PM 46.4 °F 44.3 °F 42.8 °F 87% 30.21 in 6.2 mi ENE 4.6 mph - N/A   Partly Cloudy
10:00 PM 44.6 °F 40.7 °F 42.8 °F 93% 30.21 in - NE 6.9 mph - N/A   Clear
10:30 PM 46.4 °F 42.4 °F 42.8 °F 87% 30.21 in - NE 8.1 mph - N/A   Clear
11:00 PM 44.6 °F 40.2 °F 42.8 °F 93% 30.21 in - NE 8.1 mph - N/A   Clear